VE4UB Weather Reports


Display with metric or nautical units.
time (UTC)temp
F
wind
direction
speed
MPH
gust
MPH
rain 1hr
in
rain 24hr
in
rain mn
in
humidity
%
barometer
mb
20181020081931 30 11 10.0 20.0 0.00 0.00 0.00 60 1021.0
20181020081431 30 359 10.0 21.0 0.00 0.00 0.00 60 1021.0
20181020080931 30 1 18.0 24.0 0.00 0.00 0.00 59 1020.8
20181020080431 30 7 12.0 24.0 0.00 0.00 0.00 60 1020.7
20181020075931 30 357 13.0 20.0 0.00 0.00 0.00 61 1020.8
20181020075431 30 326 9.0 18.0 0.00 0.00 0.00 61 1020.7
20181020074931 30 11 12.0 18.0 0.00 0.00 0.00 60 1020.7
20181020074432 30 354 15.0 16.0 0.00 0.00 0.00 60 1020.6
20181020073931 30 335 14.0 18.0 0.00 0.00 0.00 59 1020.6
20181020073431 30 326 10.0 19.0 0.00 0.00 0.00 59 1020.5
20181020072931 30 4 15.0 19.0 0.00 0.00 0.00 59 1020.5
20181020072401 30 354 8.0 17.0 0.00 0.00 0.00 60 1020.4
20181020071901 30 352 15.0 15.0 0.00 0.00 0.00 61 1020.4
20181020071432 30 354 9.0 16.0 0.00 0.00 0.00 60 1020.3
20181020070931 30 332 12.0 17.0 0.00 0.00 0.00 59 1020.2
20181020070431 30 8 11.0 17.0 0.00 0.00 0.00 59 1020.3
20181020065931 30 343 10.0 16.0 0.00 0.00 0.00 59 1020.1
20181020065431 30 353 8.0 21.0 0.00 0.00 0.00 58 1020.1
20181020064901 30 346 9.0 21.0 0.00 0.00 0.00 57 1020.0
20181020064431 30 359 11.0 20.0 0.00 0.00 0.00 57 1019.9
20181020063931 31 359 8.0 20.0 0.00 0.00 0.00 57 1019.9
20181020063401 31 3 16.0 21.0 0.00 0.00 0.00 57 1019.8
20181020062931 31 350 18.0 21.0 0.00 0.00 0.00 57 1019.8
20181020062431 31 20 8.0 22.0 0.00 0.00 0.00 59 1019.7
20181020061931 31 301 12.0 22.0 0.00 0.00 0.00 58 1019.6
20181020061431 31 359 9.0 21.0 0.00 0.00 0.00 58 1019.5
20181020060931 31 325 13.0 21.0 0.00 0.00 0.00 57 1019.5
20181020060431 31 328 14.0 19.0 0.00 0.00 0.00 58 1019.4
20181020055931 32 332 13.0 19.0 0.00 0.00 0.00 58 1019.4
20181020055431 32 333 15.0 21.0 0.00 0.00 0.00 58 1019.3
20181020054931 32 347 10.0 23.0 0.00 0.00 0.00 57 1019.3
20181020054431 32 319 12.0 23.0 0.00 0.00 0.00 57 1019.2
20181020053931 32 345 9.0 19.0 0.00 0.00 0.00 60 1019.2
20181020053401 32 345 13.0 22.0 0.00 0.00 0.00 62 1019.1
20181020052931 32 11 12.0 22.0 0.00 0.00 0.00 64 1019.0
20181020052431 32 350 11.0 20.0 0.00 0.00 0.00 66 1019.1
20181020051931 32 330 15.0 24.0 0.00 0.00 0.00 67 1018.9
20181020051431 32 11 22.0 28.0 0.00 0.00 0.00 66 1018.9
20181020050901 32 314 15.0 28.0 0.00 0.00 0.00 66 1018.8
20181020050431 32 322 12.0 23.0 0.00 0.00 0.00 68 1018.7
20181020045432 33 4 11.0 19.0 0.00 0.00 0.00 63 1018.6
20181020044932 33 14 9.0 16.0 0.00 0.00 0.00 62 1018.4
20181020044432 33 339 10.0 22.0 0.00 0.00 0.00 62 1018.2
20181020043932 33 347 10.0 22.0 0.00 0.00 0.00 60 1018.2
20181020043432 33 4 12.0 21.0 0.00 0.00 0.00 60 1018.1
20181020042932 34 359 8.0 24.0 0.00 0.00 0.00 60 1018.0
20181020042432 34 345 18.0 24.0 0.00 0.00 0.00 59 1017.9
20181020041932 34 8 18.0 19.0 0.00 0.00 0.00 60 1017.8
20181020041432 34 23 9.0 21.0 0.00 0.00 0.00 61 1017.8
20181020040932 34 4 17.0 28.0 0.00 0.00 0.00 59 1017.7
20181020040402 34 0 17.0 28.0 0.00 0.00 0.00 59 1017.7
20181020035932 34 17 19.0 23.0 0.00 0.00 0.00 62 1017.6
20181020035402 34 6 17.0 23.0 0.00 0.00 0.00 62 1017.5
20181020034932 34 3 17.0 21.0 0.00 0.00 0.00 64 1017.4
20181020034432 34 347 16.0 25.0 0.00 0.00 0.00 63 1017.3
20181020033932 34 14 10.0 25.0 0.00 0.00 0.00 62 1017.2
20181020033432 34 352 9.0 17.0 0.00 0.00 0.00 64 1017.2
20181020032932 34 335 15.0 15.0 0.00 0.00 0.00 65 1017.0
20181020032402 35 356 10.0 15.0 0.00 0.00 0.00 64 1016.9
20181020031932 35 357 8.0 15.0 0.00 0.00 0.00 63 1016.8
20181020031402 35 14 14.0 18.0 0.00 0.00 0.00 62 1016.7
20181020030932 35 4 12.0 18.0 0.00 0.00 0.00 62 1016.7
20181020030432 35 15 8.0 18.0 0.00 0.00 0.00 62 1016.7
20181020025932 35 357 14.0 20.0 0.00 0.00 0.00 61 1016.5
20181020025402 35 356 11.0 20.0 0.00 0.00 0.00 60 1016.5
20181020024932 36 359 9.0 21.0 0.00 0.00 0.00 62 1016.4
20181020024432 36 340 9.0 21.0 0.00 0.00 0.00 65 1016.4
20181020023932 36 326 14.0 15.0 0.00 0.00 0.00 75 1016.4
20181020023432 36 352 9.0 16.0 0.00 0.00 0.00 80 1016.2
20181020022902 36 1 12.0 16.0 0.00 0.00 0.00 81 1016.1
20181020022432 36 1 10.0 15.0 0.00 0.00 0.00 83 1016.0
20181020021932 36 359 9.0 15.0 0.00 0.00 0.00 84 1015.9
20181020021432 36 17 7.0 13.0 0.00 0.00 0.00 86 1015.9
20181020020932 36 0 7.0 17.0 0.00 0.00 0.00 88 1015.8
20181020020432 36 1 13.0 17.0 0.00 0.00 0.00 89 1015.8
20181020015932 36 3 9.0 14.0 0.00 0.00 0.00 90 1015.7
20181020015432 36 346 6.0 14.0 0.00 0.00 0.00 90 1015.7
20181020014932 36 323 7.0 14.0 0.00 0.00 0.00 90 1015.7
20181020014432 36 352 7.0 16.0 0.00 0.00 0.00 91 1015.6
20181020013932 36 11 10.0 16.0 0.00 0.00 0.00 91 1015.7
20181020013432 36 359 12.0 15.0 0.00 0.00 0.00 91 1015.6
20181020012932 36 336 7.0 15.0 0.00 0.00 0.00 92 1015.4
20181020012402 36 359 7.0 14.0 0.00 0.00 0.00 92 1015.5
20181020011902 36 335 10.0 12.0 0.00 0.00 0.00 93 1015.6
20181020011431 36 13 9.0 16.0 0.00 0.00 0.00 93 1015.5
20181020010932 36 346 16.0 19.0 0.00 0.00 0.00 93 1015.4
20181020010432 36 335 19.0 19.0 0.00 0.00 0.00 93 1015.3
20181020005932 36 6 6.0 15.0 0.00 0.00 0.00 93 1015.2
20181020005432 36 311 6.0 13.0 0.00 0.00 0.00 93 1015.2
20181020004902 36 338 11.0 13.0 0.00 0.00 0.00 93 1015.2
20181020004432 36 307 5.0 10.0 0.00 0.00 0.00 92 1015.1
20181020003932 36 345 10.0 10.0 0.00 0.00 0.00 92 1015.1
20181020003431 36 347 5.0 9.0 0.00 0.00 0.00 92 1015.1
20181020002932 37 321 8.0 10.0 0.00 0.00 0.00 91 1015.0
20181020002431 37 359 7.0 10.0 0.00 0.00 0.00 91 1015.0
20181020001931 37 326 7.0 10.0 0.00 0.00 0.00 91 1015.0
20181020001431 37 359 4.0 14.0 0.00 0.00 0.00 90 1014.9
20181020000902 37 10 6.0 14.0 0.00 0.00 0.00 90 1014.7
20181020000402 38 4 8.0 17.0 0.00 0.00 0.00 90 1014.6
20181019235932 38 352 9.0 19.0 0.00 0.00 0.00 89 1014.5
20181019235431 38 1 11.0 24.0 0.00 0.00 0.00 87 1014.6
20181019234931 38 343 14.0 24.0 0.00 0.00 0.00 85 1014.9
20181019234432 39 357 14.0 20.0 0.00 0.00 0.00 84 1014.9
20181019233931 38 8 14.0 22.0 0.00 0.00 0.00 86 1014.8
20181019233402 38 13 8.0 24.0 0.00 0.00 0.00 89 1014.9
20181019232931 38 20 14.0 26.0 0.00 0.00 0.00 90 1014.8
20181019232431 38 10 13.0 26.0 0.00 0.00 0.00 90 1014.9
20181019231932 38 353 14.0 32.0 0.00 0.00 0.00 89 1014.7
20181019231431 40 6 13.0 32.0 0.00 0.00 0.00 82 1014.8
20181019230931 45 23 21.0 28.0 0.00 0.00 0.00 65 1014.5
20181019230432 46 11 8.0 9.0 0.00 0.00 0.00 64 1013.5
20181019225931 46 7 6.0 9.0 0.00 0.00 0.00 65 1013.3
20181019225402 46 6 6.0 9.0 0.00 0.00 0.00 64 1013.1
20181019224931 46 359 5.0 9.0 0.00 0.00 0.00 63 1013.1
20181019224431 47 338 7.0 10.0 0.00 0.00 0.00 62 1013.0
20181019223931 47 359 6.0 13.0 0.00 0.00 0.00 62 1013.1
20181019223431 47 333 7.0 13.0 0.00 0.00 0.00 60 1013.1
20181019222931 47 302 8.0 14.0 0.00 0.00 0.00 59 1013.0
20181019222431 47 311 5.0 15.0 0.00 0.00 0.00 59 1013.3
20181019221931 47 343 7.0 17.0 0.00 0.00 0.00 60 1013.1
20181019221431 47 311 8.0 20.0 0.00 0.00 0.00 59 1013.1
20181019220901 48 305 15.0 20.0 0.00 0.00 0.00 56 1013.3
20181019220401 49 305 10.0 17.0 0.00 0.00 0.00 48 1013.1
20181019215931 49 342 16.0 17.0 0.00 0.00 0.00 43 1013.0
20181019215431 49 338 9.0 19.0 0.00 0.00 0.00 42 1013.0
20181019214931 50 291 10.0 21.0 0.00 0.00 0.00 42 1013.0
20181019214431 50 325 17.0 21.0 0.00 0.00 0.00 42 1013.1
20181019213931 50 346 14.0 24.0 0.00 0.00 0.00 41 1013.1
20181019213431 50 23 6.0 24.0 0.00 0.00 0.00 41 1013.3
20181019212931 50 339 3.0 19.0 0.00 0.00 0.00 41 1013.4
20181019212431 50 319 8.0 19.0 0.00 0.00 0.00 40 1013.4
20181019211901 50 342 10.0 21.0 0.00 0.00 0.00 40 1013.5
20181019211431 50 305 13.0 21.0 0.00 0.00 0.00 40 1013.5
20181019210931 50 347 11.0 19.0 0.00 0.00 0.00 39 1013.5
20181019210432 50 323 6.0 19.0 0.00 0.00 0.00 39 1013.5
20181019205931 50 345 12.0 20.0 0.00 0.00 0.00 39 1013.5
20181019205431 50 323 16.0 20.0 0.00 0.00 0.00 38 1013.5
20181019204931 50 321 17.0 22.0 0.00 0.00 0.00 38 1013.5
20181019204432 51 356 16.0 23.0 0.00 0.00 0.00 37 1013.5
20181019203931 51 339 15.0 26.0 0.00 0.00 0.00 37 1013.5
20181019203431 51 340 13.0 26.0 0.00 0.00 0.00 37 1013.5
20181019202931 51 340 16.0 22.0 0.00 0.00 0.00 36 1013.4
20181019202431 51 316 19.0 26.0 0.00 0.00 0.00 37 1013.4
20181019201931 51 314 12.0 32.0 0.00 0.00 0.00 37 1013.3
20181019201431 51 8 21.0 32.0 0.00 0.00 0.00 38 1013.0
20181019200931 52 346 22.0 29.0 0.00 0.00 0.00 36 1013.1
20181019200431 51 315 5.0 22.0 0.00 0.00 0.00 37 1013.1
20181019195901 51 336 14.0 23.0 0.00 0.00 0.00 37 1013.1
20181019195431 51 338 17.0 25.0 0.00 0.00 0.00 39 1013.1
20181019194931 51 332 14.0 25.0 0.00 0.00 0.00 41 1013.1
20181019194431 51 340 14.0 22.0 0.00 0.00 0.00 43 1013.1
20181019193931 51 333 12.0 22.0 0.00 0.00 0.00 43 1013.1
20181019193431 51 0 5.0 24.0 0.00 0.00 0.00 47 1013.1
20181019192931 51 354 9.0 24.0 0.00 0.00 0.00 47 1013.3
20181019192431 50 342 15.0 22.0 0.00 0.00 0.00 47 1013.1
20181019191931 50 17 12.0 22.0 0.00 0.00 0.00 48 1013.4
20181019191431 49 330 18.0 20.0 0.00 0.00 0.00 50 1013.4
20181019190931 48 339 13.0 22.0 0.00 0.00 0.00 53 1013.5
20181019190431 49 21 10.0 22.0 0.00 0.00 0.00 52 1013.6
20181019185901 49 24 6.0 19.0 0.00 0.00 0.00 52 1013.6
20181019185431 49 295 9.0 19.0 0.00 0.00 0.00 51 1013.7
20181019184931 49 322 8.0 18.0 0.00 0.00 0.00 51 1013.6
20181019184431 48 347 10.0 18.0 0.00 0.00 0.00 52 1013.6
20181019183931 48 11 7.0 20.0 0.00 0.00 0.00 53 1013.7
20181019183431 48 1 10.0 20.0 0.00 0.00 0.00 52 1013.7
20181019182901 48 339 17.0 25.0 0.00 0.00 0.00 52 1013.8
20181019182431 48 315 13.0 25.0 0.00 0.00 0.00 51 1013.8
20181019181931 48 326 14.0 23.0 0.00 0.00 0.00 54 1013.8
20181019181431 48 349 17.0 23.0 0.00 0.00 0.00 55 1013.8
20181019180931 48 347 13.0 23.0 0.00 0.00 0.00 57 1013.7
20181019180431 48 8 11.0 19.0 0.00 0.00 0.00 57 1013.8
20181019175931 47 343 16.0 22.0 0.00 0.00 0.00 58 1013.7
20181019175431 47 345 22.0 22.0 0.00 0.00 0.00 58 1013.8
20181019174931 47 353 13.0 22.0 0.00 0.00 0.00 57 1013.8
20181019174431 47 10 17.0 21.0 0.00 0.00 0.00 58 1013.8
20181019173931 47 359 21.0 21.0 0.00 0.00 0.00 60 1013.7
20181019173431 47 339 12.0 23.0 0.00 0.00 0.00 62 1013.7
20181019172931 47 332 14.0 24.0 0.00 0.00 0.00 62 1013.6
20181019172431 47 359 14.0 24.0 0.00 0.00 0.00 61 1013.7
20181019171932 47 359 10.0 23.0 0.00 0.00 0.00 60 1013.7
20181019171431 47 343 21.0 23.0 0.00 0.00 0.00 60 1013.6
20181019170931 47 321 18.0 23.0 0.00 0.00 0.00 59 1013.5
20181019170431 47 340 16.0 28.0 0.00 0.00 0.00 61 1013.4
20181019165931 47 359 9.0 28.0 0.00 0.00 0.00 61 1013.4
20181019165431 47 354 17.0 26.0 0.00 0.00 0.00 61 1013.3
20181019164931 47 3 12.0 24.0 0.00 0.00 0.00 61 1013.1
20181019164431 47 1 18.0 24.0 0.00 0.00 0.00 62 1013.3
20181019163931 47 339 16.0 24.0 0.00 0.00 0.00 61 1013.1
20181019163401 47 3 20.0 29.0 0.00 0.00 0.00 62 1013.0
20181019162901 47 340 21.0 29.0 0.00 0.00 0.00 62 1012.9
20181019162401 47 3 12.0 28.0 0.00 0.00 0.00 62 1012.8
20181019161916 47 345 25.0 28.0 0.00 0.00 0.00 62 1012.8
20181019161401 48 329 15.0 28.0 0.00 0.00 0.00 61 1012.6
20181019160916 48 340 23.0 28.0 0.00 0.00 0.00 60 1012.5
20181019160416 48 7 17.0 24.0 0.00 0.00 0.00 60 1012.4
20181019155934 48 333 15.0 20.0 0.00 0.00 0.00 60 1012.4
20181019155430 48 347 17.0 29.0 0.00 0.00 0.00 61 1012.2
20181019154901 48 335 18.0 29.0 0.00 0.00 0.00 60 1012.1
20181019154431 48 314 12.0 24.0 0.00 0.00 0.00 60 1012.0
20181019153931 48 4 12.0 24.0 0.00 0.00 0.00 60 1012.0
20181019153431 47 359 9.0 22.0 0.00 0.00 0.00 60 1011.9
20181019152931 47 312 15.0 26.0 0.00 0.00 0.00 60 1011.8
20181019152431 48 319 15.0 26.0 0.00 0.00 0.00 60 1011.7
20181019151931 48 17 10.0 24.0 0.00 0.00 0.00 60 1011.6
20181019151431 48 332 16.0 18.0 0.00 0.00 0.00 59 1011.6
20181019150931 48 343 13.0 18.0 0.00 0.00 0.00 60 1011.5
20181019150401 47 319 14.0 24.0 0.00 0.00 0.00 60 1011.4
20181019145931 47 326 14.0 24.0 0.00 0.00 0.00 60 1011.3
20181019145430 47 359 7.0 20.0 0.00 0.00 0.00 61 1011.3
20181019144930 47 342 12.0 20.0 0.00 0.00 0.00 61 1011.3
20181019144430 47 346 15.0 19.0 0.00 0.00 0.00 62 1011.2
20181019143930 46 7 11.0 16.0 0.00 0.00 0.00 62 1011.1
20181019143401 46 335 13.0 15.0 0.00 0.00 0.00 62 1011.0
20181019142930 46 333 13.0 16.0 0.00 0.00 0.00 63 1010.9
20181019142430 46 350 8.0 16.0 0.00 0.00 0.00 63 1010.8
20181019141930 46 353 9.0 16.0 0.00 0.00 0.00 63 1010.7
20181019141430 45 342 9.0 16.0 0.00 0.00 0.00 64 1010.6
20181019140930 45 315 4.0 14.0 0.00 0.00 0.00 64 1010.6
20181019140430 45 350 8.0 14.0 0.00 0.00 0.00 65 1010.5
20181019135931 45 318 8.0 12.0 0.00 0.00 0.00 65 1010.3
20181019135416 45 321 5.0 14.0 0.00 0.00 0.00 65 1010.3
20181019134916 45 315 13.0 14.0 0.00 0.00 0.00 65 1010.2
20181019134401 45 323 10.0 12.0 0.00 0.00 0.00 65 1010.2
20181019133930 45 332 5.0 12.0 0.00 0.00 0.00 65 1010.0
20181019133430 45 330 7.0 14.0 0.00 0.00 0.00 65 1010.0
20181019132930 45 329 8.0 14.0 0.00 0.00 0.00 65 1010.0
20181019132430 45 302 11.0 14.0 0.00 0.00 0.00 65 1010.0
20181019131930 44 288 6.0 15.0 0.00 0.00 0.00 66 1009.7
20181019131430 44 350 9.0 15.0 0.00 0.00 0.00 66 1009.7
20181019130930 44 13 8.0 13.0 0.00 0.00 0.00 66 1009.6
20181019130430 44 332 7.0 12.0 0.00 0.00 0.00 66 1009.5
20181019125930 44 315 8.0 12.0 0.00 0.00 0.00 67 1009.4
20181019125430 44 328 6.0 12.0 0.00 0.00 0.00 67 1009.3
20181019124930 44 330 7.0 12.0 0.00 0.00 0.00 68 1009.3
20181019124430 44 302 6.0 9.0 0.00 0.00 0.00 69 1009.1
20181019123930 44 356 8.0 9.0 0.00 0.00 0.00 69 1009.3
20181019123431 44 345 5.0 9.0 0.00 0.00 0.00 69 1009.1
20181019122901 44 349 6.0 9.0 0.00 0.00 0.00 68 1009.0
20181019122430 44 325 5.0 11.0 0.00 0.00 0.00 68 1008.9
20181019121931 44 359 4.0 11.0 0.00 0.00 0.00 68 1008.9
20181019121400 44 342 5.0 10.0 0.00 0.00 0.00 67 1008.9
20181019120930 44 359 4.0 14.0 0.00 0.00 0.00 67 1008.8
20181019120430 44 347 7.0 14.0 0.00 0.00 0.00 67 1008.8
20181019115900 44 315 4.0 11.0 0.00 0.00 0.00 67 1008.7
20181019115430 45 307 0.0 9.0 0.00 0.00 0.00 67 1008.7
20181019114900 45 347 6.0 10.0 0.00 0.00 0.00 67 1008.6
20181019114430 45 323 2.0 10.0 0.00 0.00 0.00 66 1008.5
20181019113930 45 312 6.0 9.0 0.00 0.00 0.00 66 1008.4
20181019113430 45 288 3.0 7.0 0.00 0.00 0.00 66 1008.3
20181019112930 45 305 5.0 7.0 0.00 0.00 0.00 65 1008.3
20181019112430 45 304 6.0 7.0 0.00 0.00 0.00 65 1008.2
20181019111930 46 321 3.0 7.0 0.00 0.00 0.00 64 1008.3
20181019111431 46 302 7.0 9.0 0.00 0.00 0.00 63 1008.1
20181019110930 46 321 0.0 9.0 0.00 0.00 0.00 63 1008.1
20181019110400 46 333 6.0 8.0 0.00 0.00 0.00 63 1008.1
20181019105930 46 325 4.0 8.0 0.00 0.00 0.00 62 1008.1
20181019105430 47 309 3.0 8.0 0.00 0.00 0.00 62 1008.1
20181019104930 47 354 4.0 8.0 0.00 0.00 0.00 62 1008.1
20181019104430 47 340 5.0 8.0 0.00 0.00 0.00 61 1008.2
20181019103930 47 311 5.0 10.0 0.00 0.00 0.00 60 1008.1
20181019103430 47 347 7.0 10.0 0.00 0.00 0.00 60 1008.0
20181019102930 47 347 4.0 8.0 0.00 0.00 0.00 60 1008.1
20181019102431 48 314 5.0 7.0 0.00 0.00 0.00 59 1008.0
20181019101930 48 349 4.0 9.0 0.00 0.00 0.00 59 1007.9
20181019101400 48 346 3.0 9.0 0.00 0.00 0.00 58 1007.8
20181019100930 48 328 3.0 7.0 0.00 0.00 0.00 59 1007.8
20181019100430 48 359 5.0 6.0 0.00 0.00 0.00 59 1007.7
20181019095930 48 0 3.0 7.0 0.00 0.00 0.00 60 1007.7
20181019095431 48 333 0.0 7.0 0.00 0.00 0.00 61 1007.6
20181019094930 48 335 4.0 6.0 0.00 0.00 0.00 61 1007.7
20181019094431 48 308 1.0 6.0 0.00 0.00 0.00 60 1007.6
20181019093930 48 335 2.0 6.0 0.00 0.00 0.00 60 1007.5
20181019093431 48 335 0.0 0.0 0.00 0.00 0.00 60 1007.4
20181019092930 49 335 0.0 0.0 0.00 0.00 0.00 59 1007.4
20181019092430 49 335 0.0 0.0 0.00 0.00 0.00 58 1007.3
20181019091431 49 335 0.0 7.0 0.00 0.00 0.00 57 1007.2
20181019090930 49 357 6.0 7.0 0.00 0.00 0.00 57 1007.1
20181019090431 49 349 5.0 6.0 0.00 0.00 0.00 59 1007.0
20181019085930 49 347 0.0 0.0 0.00 0.00 0.00 60 1006.9
20181019085430 50 347 0.0 4.0 0.00 0.00 0.00 59 1006.9
20181019084930 50 347 0.0 8.0 0.00 0.00 0.00 58 1006.9
20181019084430 50 354 5.0 8.0 0.00 0.00 0.00 58 1006.7
20181019083930 50 11 5.0 8.0 0.00 0.00 0.00 58 1006.9
20181019083400 50 352 7.0 8.0 0.00 0.00 0.00 58 1007.0
20181019082930 50 1 5.0 8.0 0.00 0.00 0.00 58 1006.9
20181019082430 50 15 3.0 9.0 0.00 0.00 0.00 58 1006.8